Weather History for KNFL - April, 2013

Change the Weather History Date:

Wednesday, April 3, 2013

  Actual Average Record
Temperature  
Mean Temperature 55 °F -  
Max Temperature 73 °F 61 °F 89 °F (1961)
Min Temperature 37 °F 31 °F 16 °F (1956)
Degree Days  
Heating Degree Days 10    
Growing Degree Days 5 (Base 50)    
Moisture  
Dew Point 26 °F    
Average Humidity 38    
Maximum Humidity 67    
Minimum Humidity 14    
Precipitation  
Precipitation 0.00 in - - ()
Sea Level Pressure  
Sea Level Pressure 30.01 in    
Wind  
Wind Speed 4 mph (SSE)    
Max Wind Speed 9 mph    
Max Gust Speed 131 mph    
Visibility 10 miles    
Events      
Averages and records for this station are not official NWS values.
T = Trace of Precipitation, MM = Missing Value Source: NWS Daily Summary

Daily Weather History Graph

Daily Weather History Graph

Search for Another Location

Airport or City:

Trip Planner

Search our weather history database for the weather conditions in past years. The results will help you decide how hot, cold, wet, or windy it might be!

Date:

Astronomy

Apr. 03, 2013 Rise Set
Actual Time 6:35 AM PDT 7:21 PM PDT
Civil Twilight 6:08 AM PDT 7:48 PM PDT
Nautical Twilight 5:36 AM PDT 8:20 PM PDT
Astronomical Twilight 5:03 AM PDT 8:53 PM PDT
Moon 2:18 AM PDT (4/3) 12:40 PM PDT (4/3)
Length of Visible Light 13h 39m
Length of Day
12h 45m
Last Quarter, 43% of the Moon is Illuminated
Apr 3
Last Quarter
Apr 10
New
Apr 18
First Quarter
Apr 25
Full
May 2
Last Quarter

Hourly Weather History & Observations

Time (PDT) Temp. Windchill Dew Point Humidity Pressure Visibility Wind Dir Wind Speed Gust Speed Precip Events Conditions
12:56 AM 44.1 °F 42.5 °F 27.0 °F 51% 30.02 in 10.0 mi SSE 3.5 mph 131.2 mph N/A   Clear
1:56 AM 44.1 °F 40.8 °F 30.0 °F 58% 30.03 in 10.0 mi South 5.8 mph - N/A   Clear
2:56 AM 39.0 °F 35.7 °F 27.0 °F 62% 30.02 in 10.0 mi South 4.6 mph - N/A   Clear
3:56 AM 39.0 °F - 28.0 °F 65% 30.04 in 10.0 mi Calm Calm - N/A   Clear
4:56 AM 39.0 °F - 28.9 °F 67% 30.03 in 10.0 mi Calm Calm - N/A   Clear
5:56 AM 37.0 °F 31.0 °F 27.0 °F 67% 30.03 in 10.0 mi SSE 8.1 mph - N/A   Clear
6:16 AM 37.4 °F 30.8 °F 26.6 °F 65% 30.13 in 10.0 mi SSE 9.2 mph - N/A   Partly Cloudy
6:56 AM 37.9 °F 33.5 °F 27.0 °F 65% 30.05 in 10.0 mi South 5.8 mph - N/A   Scattered Clouds
7:56 AM 46.0 °F 43.9 °F 30.9 °F 56% 30.06 in 10.0 mi South 4.6 mph - N/A   Overcast
8:56 AM 53.1 °F - 33.1 °F 47% 30.07 in 10.0 mi South 4.6 mph - N/A   Overcast
9:56 AM 57.9 °F - 33.1 °F 39% 30.06 in 10.0 mi Variable 3.5 mph - N/A   Overcast
10:56 AM 62.1 °F - 33.1 °F 34% 30.06 in 10.0 mi Calm Calm - N/A   Mostly Cloudy
11:56 AM 64.0 °F - 30.9 °F 29% 30.06 in 10.0 mi Calm Calm - N/A   Overcast
12:56 PM 66.9 °F - 28.0 °F 23% 30.03 in 10.0 mi South 8.1 mph - N/A   Overcast
1:56 PM 71.1 °F - 27.0 °F 19% 30.01 in 10.0 mi South 8.1 mph - N/A   Overcast
2:56 PM 72.0 °F - 21.0 °F 15% 29.99 in 10.0 mi Variable 3.5 mph - N/A   Mostly Cloudy
3:56 PM 73.0 °F - 21.0 °F 14% 29.96 in 10.0 mi Variable 5.8 mph - N/A   Mostly Cloudy
4:56 PM 73.9 °F - 21.0 °F 14% 29.94 in 10.0 mi NW 5.8 mph - N/A   Mostly Cloudy
5:56 PM 73.0 °F - 19.9 °F 14% 29.93 in 10.0 mi NW 3.5 mph - N/A   Mostly Cloudy
6:56 PM 71.1 °F - 19.9 °F 14% 29.93 in 10.0 mi North 3.5 mph - N/A   Mostly Cloudy
7:56 PM 63.0 °F - 21.0 °F 20% 29.93 in 10.0 mi NNE 4.6 mph - N/A   Mostly Cloudy
8:56 PM 55.9 °F - 19.9 °F 25% 29.94 in 10.0 mi ENE 8.1 mph - N/A   Scattered Clouds
9:56 PM 55.9 °F - 18.0 °F 23% 29.94 in 10.0 mi SSE 3.5 mph - N/A   Partly Cloudy
10:56 PM 52.0 °F - 21.0 °F 30% 29.94 in 10.0 mi Variable 6.9 mph - N/A   Clear
11:56 PM 46.9 °F - 19.0 °F 33% 29.93 in 10.0 mi ESE 3.5 mph - N/A   Clear